www.pogodaiklimat.ru

Погода и климат >> Архив погоды >> Россия >> Сахалинская область >> Северо-Курильск


АРХИВ ПОГОДЫ в Северо-Курильске

Время (UTC), дата Ветер
(напр.,м/с)
 
Видим.   Явления Облачность Т
(С)
Тd
(С)
f
(%)
Тe
(С)
Тes
(С)
Комфортность P
(гПа)
Po
(гПа)
Тmin
(С)
Tmax
(С)
R
(мм)
R24
(мм)
S
(см)
00 14.04 СЗ 4-9
{9}
35 км 6/6 600 м
[Cb cap]
+0.3 -7.2 57 -5 -2 по сезону 1019.1 1016.1
03 14.04 СЗ 1-3
{9}
50 км 8/5 1000 м
[Cu Sc Ci fib]
+1.1 -7.9 51 0 +6 по сезону 1019.0 1016.0
06 14.04 ЮЗ 3-6
{7}
55 км 8/4 1000 м
[Cu Sc Cc]
+0.6 -8.0 52 -3 -2 по сезону 1019.6 1016.5
09 14.04 штиль 0-3
{6}
24 км 9/3 1000 м
[Cu Sc Cs]
-1.4 -7.7 62 -2 -2 по сезону 1020.4 1017.3 +1.6
12 14.04 ЮЗ 2-3
{4}
4000 м 5/0
[Ci fib]
-2.2 -9.2 59 -6 -6 по сезону 1020.8 1017.7
15 14.04 ЮЗ 2-3
{4}
4000 м ясно -3.1 -10.1 58 -7 -7 по сезону 1020.5 1017.4
18 14.04 З 1-2
{3}
4000 м 3/0
[Ci fib]
-4.8 -10.1 66 -7 -7 по сезону 1020.3 1017.1
21 14.04 С 2-2
{3}
65 км 3/3 1000 м
[Cu Sc]
-0.9 -7.4 61 -4 -2 по сезону 1020.2 1017.1 -5.0 12
00 15.04 С 2-3
{3}
50 км ясно +1.1 -7.0 55 -2 +10 по сезону 1019.9 1016.9
03 15.04 СВ 1-3
{3}
50 км 8/8 1000 м
[Sc]
+1.8 -7.2 51 +1 +15 опасность
простуды
1019.4 1016.4
06 15.04 С 2-2
{3}
50 км 8/8 1000 м
[Sc]
+1.7 -4.4 64 -1 -1 по сезону 1019.8 1016.8
09 15.04 СЗ 1-1
{3}
40 км 9/4 1000 м
[Sc Ci fib]
+0.6 -4.6 68 -1 -1 по сезону 1020.7 1017.6 +2.4
12 15.04 штиль 0-1
{2}
4000 м 10/4 1000 м
[Sc Ci fib]
-0.3 -2.3 86 -1 -1 по сезону 1021.2 1018.1
15 15.04 ЮЗ 1-2
{4}
4000 м 10/5 1000 м
[Sc Ac und]
-0.4 -2.9 83 -2 -2 по сезону 1020.1 1017.1
18 15.04 ЮВ 7-10
{12}
4000 м 10/10 300 м
[St]
+0.2 -0.8 93 -7 -7 по сезону 1019.6 1016.6
21 15.04 ЮВ 5-5
{10}
500 м слаб. морось {туман} туман ?/? +0.4 -0.4 94 -6 -6 по сезону 1019.7 1016.7 -1.2 0.3 5
00 16.04 ЮВ 1-4
{6}
50 м туман ?/? +0.7 -0.1 94 -1 -1 по сезону 1018.8 1015.8
03 16.04 ЮВ 4-8
{11}
16 км {ливн. осадки, туман} 10/10 200 м
[St]
+1.4 +0.6 94 -4 -4 по сезону 1015.6 1012.6
06 16.04 В 8-12
{13}
6000 м слаб. дождь 10/10 300 м
[Frnb Ns]
+2.0 +1.2 94 -5 -5 по сезону 1013.0 1010.0
09 16.04 В 10-14
{14}
2300 м дождь 10/10 300 м
[Frnb Ns]
+1.7 +0.7 93 -6 -6 по сезону 1011.0 1008.0 +2.8 12
12 16.04 В 11-18
{18}
2000 м дождь 10/10 300 м
[Frnb Ns]
+1.9 +0.5 90 -6 -6 по сезону 1009.7 1006.7
15 16.04 ЮВ 8-11
{18}
2000 м слаб. ливневой снег {дождь} 10/10 300 м
[Cb cap]
+0.6 -0.5 92 -7 -7 по сезону 1009.2 1006.2
18 16.04 В 7-11
{15}
2000 м слаб. ливневой снег {дождь} 10/10 300 м
[Cb cap]
+0.9 -0.3 92 -6 -6 по сезону 1007.4 1004.4
21 16.04 В 5-9
{12}
1300 м ливневой снег 10/10 300 м
[Cb cap]
+0.7 -0.4 92 -5 -5 по сезону 1007.7 1004.7 +0.5 30 7
00 17.04 В 6-11
{13}
2000 м слаб. ливневой снег 10/10 300 м
[Cb cap]
+0.5 -0.3 94 -6 -6 по сезону 1008.7 1005.7 +0.3
03 17.04 СВ 9-15
{16}
4700 м слаб. ливневой дождь 10/10 600 м
[Cb cap]
+1.3 -0.1 90 -6 -6 по сезону 1008.2 1005.2
06 17.04 СВ 9-16
{16}
14 км слаб. ливневой дождь 10/10 600 м
[Cb cap]
+1.3 -0.4 88 -6 -6 по сезону 1009.3 1006.3
09 17.04 СВ 5-10
{16}
8000 м слаб. ливневой дождь 10/10 600 м
[Cb cap]
+1.2 -0.2 90 -5 -5 по сезону 1012.5 1009.4 +1.4 10
12 17.04 СВ 5-9
{10}
4000 м {ливн. осадки} 10/10 600 м
[Cb cap]
+1.2 -0.8 87 -5 -5 по сезону 1014.7 1011.7
15 17.04 ЮЗ 4-6
{11}
4000 м 10/10 600 м
[Cb cap]
+1.1 -1.2 85 -4 -4 по сезону 1017.3 1014.2
18 17.04 ЮЗ 1-3
{14}
4000 м 10/10 600 м
[Sc]
+1.5 -1.5 80 -0 -0 тепло 1019.3 1016.3
21 17.04 З 1-2
{8}
25 км 10/10 600 м
[Sc]
+1.7 -1.5 79 0 0 по сезону 1022.6 1019.5 +1.0 0.0 4
00 18.04 ЮВ 1-3
{7}
29 км 10/8 600 м
[Sc Cs]
+2.7 -1.9 72 +1 +4 по сезону 1023.7 1020.7
03 18.04 Ю 1-3
{5}
60 км 6/6 600 м
[Cu Sc]
+3.3 -2.8 64 +2 +8 тепло 1024.0 1021.0
06 18.04 штиль 0-2
{4}
70 км 8/6 600 м
[Cu Sc Ci fib]
+2.4 -4.4 61 +2 +4 тепло 1024.8 1021.8
09 18.04 ЮВ 1-2
{4}
23 км 9/9 600 м
[Sc]
+1.5 -3.4 70 0 0 по сезону 1026.0 1022.9 +3.7
12 18.04 В 3-5
{5}
4000 м 9/9 600 м
[Sc]
+1.1 -2.4 77 -3 -3 по сезону 1026.4 1023.4
15 18.04 Ю 2-3
{5}
4000 м 10/10 600 м
[Sc]
+0.8 -1.1 87 -3 -3 по сезону 1025.8 1022.8
18 18.04 Ю 2-4
{5}
4000 м 9/9 600 м
[Sc]
+0.7 -2.7 78 -3 -3 по сезону 1025.9 1022.8
21 18.04 ЮВ 2-3
{5}
28 км 9/9 600 м
[Sc]
+1.4 -3.7 69 -2 -1 по сезону 1026.4 1023.4 +0.5 0
00 19.04 ЮВ 4-5
{5}
26 км {ливн. осадки} 10/10 600 м
[Cb cap]
+1.0 -0.8 88 -4 -4 по сезону 1027.1 1024.0
03 19.04 ЮВ 4-6
{7}
18 км в посл. час ливневой снег 10/10 300 м
[Cb cap]
+1.1 -0.4 90 -4 -4 по сезону 1026.4 1023.3
06 19.04 ЮВ 3-5
{8}
30 км {ливн. осадки} 10/10 300 м
[St]
+1.3 -0.7 87 -3 -3 по сезону 1026.3 1023.2
09 19.04 ЮВ 5-8
{7}
35 км 9/9 600 м
[Sc]
+1.5 -1.7 79 -4 -4 по сезону 1026.9 1023.8 +1.5 0.3
12 19.04 ЮВ 4-7
{8}
4000 м 10/10 600 м
[Sc]
+1.3 -1.7 80 -4 -4 по сезону 1027.0 1023.9
15 19.04 ЮВ 5-8
{9}
4000 м 9/9 1000 м
[Sc]
+1.7 -3.7 67 -4 -4 по сезону 1026.9 1023.9
18 19.04 ЮВ 5-8
{9}
4000 м 10/10 600 м
[Sc]
+1.4 -2.7 74 -4 -4 по сезону 1027.4 1024.3
21 19.04 ЮВ 5-7
{10}
35 км 10/10 600 м
[Sc]
+1.7 -4.2 65 -4 -4 по сезону 1028.4 1025.3 +1.2 0
00 20.04 ЮВ 6-7
{8}
35 км 10/10 600 м
[Sc]
+1.6 -3.4 69 -4 -4 по сезону 1028.4 1025.3
03 20.04 ЮВ 6-8
{9}
30 км 10/10 1000 м
[Sc]
+2.2 -4.0 64 -3 -3 по сезону 1028.1 1025.0
06 20.04 ЮВ 6-8
{10}
35 км 10/3 1000 м
[Cu hum Ac As]
+1.5 -2.4 75 -5 -4 по сезону 1028.0 1024.9
09 20.04 ЮВ 6-8
{10}
28 км 10/4 600 м
[Sc Ac As]
+1.3 -2.3 77 -5 -5 по сезону 1028.1 1025.0 +2.3
12 20.04 ЮВ 4-7
{9}
4000 м 10/10 600 м
[Sc]
+1.3 -2.2 77 -4 -4 по сезону 1027.7 1024.6
15 20.04 ЮВ 5-7
{8}
4000 м 10/10 600 м
[Sc]
+1.2 -2.6 76 -4 -4 по сезону 1027.0 1023.9
18 20.04 ЮВ 5-7
{8}
4000 м 10/6 600 м
[Sc Ac As]
+1.5 -3.4 70 -4 -4 по сезону 1026.3 1023.3
21 20.04 ЮВ 4-6
{8}
35 км 10/4 600 м
[Cu Sc Ac As]
+1.6 -3.0 71 -3 -3 по сезону 1026.4 1023.3 +1.0 0

 

Местоположение метеостанции Северо-Курильск (Сахалинская область, Россия): широта 50.68 долгота 156.10 высота над уровнем моря 23 м.

В архиве по умолчанию представлена погода в Северо-Курильске за последнюю неделю. Архивные данные за месяц целиком и за предыдущие месяцы, начиная с января 2011 года, Вы можете получить, выбрав интересующий диапазон дат из раскрывающегося списка и нажав кнопку "Ввод!".


*Определитесь, кто Вы:
робот инопланетянин человек

Внимание! Время в таблицах - всемирное. Для получения местного времени необходимо прибавить поправку, которая равна 12 ч.

Смотрите также архив погоды в соседних городах и на ближайших метеорологических станциях:

Погода на Мысе Лопатка (Камчатский край, Россия) (41 км)
Погода в Озерной (Камчатский край, Россия) (91 км)
Погода в Водопадной (Камчатский край, Россия) (183 км)
Погода в Большерецке (Камчатский край, Россия) (240 км)
Погода в Начиках (Камчатский край, Россия) (293 км)
Погода в Петропавловск-Камчатском (Камчатский край, Россия) (298 км)
Погода в Петропавловском Маяке (Камчатский край, Россия) (303 км)
Погода в Сосновке (Камчатский край, Россия) (307 км)
Погода в Петропавловск-Камч. 2 (Камчатский край, Россия) (314 км)
Погода в Соболево (Камчатский край, Россия) (403 км)

Пояснения к столбцам:

Ветер - указаны скорость ветра в м/с - средняя за 10 мин, порывы в срок и между сроками (в фигурных скобках) и направление, откуда дует ветер: С - северный, СВ - северо-восточный, В - восточный, ЮВ - юго-восточный, Ю - южный, ЮЗ - юго-западный, З - западный, СЗ - северо-западный.
Видимость - горизонтальная дальность видимости в метрах или километрах. При видимости от 1 до 10 км при отсутствии осадков обычно наблюдается дымка, при ухудшении видимости до 1 км и менее - туман. В сухую погоду видимость может ухудшаться дымом, пылью или мглою.
Явления - указаны атмосферные явления, наблюдавшиеся в срок или в последний час перед сроком; фигурными скобками обозначены явления, наблюдавшиеся между сроками (за 1-3 часа до срока); квадратными скобками обозначены град или гололедные отложения с указанием их диаметра в мм.
Облачность - указаны через наклонную черту общая и нижняя облачность в баллах и высота нижней границы облаков в метрах; квадратными скобками обозначены формы облаков: Ci - перистые, Cs - перисто-слоистые, Cc - перисто-кучевые, Ac - высококучевые, As - высокослоистые, Sc - слоисто-кучевые, Ns - слоисто-дождевые, Cu - кучевые, Cb - кучево-дождевые. Подробнее классификацию облаков см. в Атласе облаков (PDF).
T - Температура воздуха - температура, измеренная на высоте 2 м над землей.
Td - Температура точки росы - температура, при понижении до которой содержащийся в воздухе водяной пар достигнет насыщения.
f - Относительная влажность воздуха - влажноcть воздуха, измеренная на высоте 2 м над землей.
Te - Эффективная температура - температура, которую ощущает одетый по сезону человек в тени. Характеристика душности погоды. При расчете учитывается влияние влажности воздуха и скорости ветра на теплоощущения человека.
Tes - Эффективная температура на солнце - температура, которую ощущает человек, с поправкой на солнечный нагрев. Характеристика знойности погоды. Зависит от высоты солнца над горизонтом, облачности и скорости ветра. Ночью, в пасмурную погоду, а также при ветре 12 м/с и более поправка равна нулю.
P - Атмосферное давление - приведенное к уровню моря атмосферное давление.
Po - Атмосферное давление - измеренное на уровне метеостанции атмосферное давление.
Tmin - Минимальная температура - минимум температуры воздуха на высоте 2 м над землей.
Tmax - Максимальная температура - максимум температуры воздуха на высоте 2 м над землей.
R - Количество осадков - Количество выпавших осадков за период времени, мм. При наведении курсора мыши на число - период времени, за который выпало указанное количество осадков.
R24 - Количество осадков - Количество выпавших осадков за 24 часа, мм.
S - Снежный покров - Высота снежного покрова, см. При наведении курсора мыши на число - состояние снежного покрова и степень покрытия местности в баллах.